{"data":{"norad_id":35491,"epoch":"2026-05-25T05:02:38.473728Z","epoch_age_seconds":46997,"freshness":"FRESH","line1":"1 35491U 09033A   26145.21016752 -.00000191  00000+0  00000+0 0  9999","line2":"2 35491   1.6334  83.3030 0001892 345.2143  44.7621  1.00117173  6360","mean_motion":1.00117173,"eccentricity":0.0001892,"inclination_deg":1.6334,"raan_deg":83.303,"arg_perigee_deg":345.2143,"mean_anomaly_deg":44.7621,"bstar":0,"rev_number":636,"period_min":1438.3146835359,"perigee_km":35822.008309068,"apogee_km":35837.979865872,"semimajor_km":42208.13108747,"source":"CELESTRAK","updated_at":"2026-05-25T13:38:13.864416Z"}}